Location: Helion Bumpstead
(52.0500°N, 0.4000°E)
Time: 20:26:52
(UTC+00:00)

CZ-2C R/B - Pass Details

Date: 15 November 2025
Orbit: 664 x 773 km, 98.4° (Epoch: 14 December)

Event Time Altitude Azimuth Distance (km) Brightness Sun altitude
Rises 04:52:48 0° 11° (N) 3,211 5.8 -22.2°
Reaches altitude 10° 04:55:08 10° 7° (N) 2,295 5.0 -21.8°
Maximum altitude 05:00:01 51° 293° (WNW) 969 2.6 -21.1°
Enters shadow 05:00:59 44° 257° (WSW) 1,054 2.7 -20.9°
